When you browse on this site, cookies collect data to enhance your experience and personalize the content and advertising you see.
Visit our Privacy Policy to learn more. By continuing to use the site, you agree to this use of cookies and data.
  • En España
  • Lista de países
  • Para 7 días
  • Temperatura del agua
  • El tiempo en el mapa
  • Informadores
  • user-avatar
    Iniciar sesión

    Tiempo cada hora Satif

    Hoy, 28 Mayo, Jueves

    Tiempo Temperatura Precipitaciones Viento Presión Humedad
    00:00 +16°C° 0.1 mm 3 mps 677 mmHg 65%
    01:00 +16°C° 0 mm 3 mps 676 mmHg 65%
    02:00 +14°C° 0 mm 3 mps 676 mmHg 64%
    03:00 +15°C° 0 mm 2 mps 676 mmHg 63%
    04:00 +15°C° 0 mm 2 mps 676 mmHg 61%
    05:00 +16°C° 0 mm 2 mps 676 mmHg 58%
    06:00 +16°C° 0 mm 2 mps 676 mmHg 55%
    07:00 +18°C° 0 mm 3 mps 677 mmHg 51%
    08:00 +19°C° 0 mm 4 mps 678 mmHg 48%
    09:00 +21°C° 0 mm 5 mps 678 mmHg 44%
    10:00 +22°C° 0 mm 5 mps 678 mmHg 42%
    11:00 +23°C° 0 mm 5 mps 678 mmHg 39%
    12:00 +25°C° 0 mm 5 mps 678 mmHg 37%
    13:00 +25°C° 0 mm 5 mps 677 mmHg 38%
    14:00 +25°C° 0 mm 4 mps 677 mmHg 38%
    15:00 +25°C° 0 mm 4 mps 676 mmHg 38%
    16:00 +23°C° 0.1 mm 4 mps 676 mmHg 41%
    17:00 +23°C° 0.1 mm 4 mps 676 mmHg 43%
    18:00 +22°C° 0.1 mm 4 mps 675 mmHg 45%
    19:00 +21°C° 0.2 mm 4 mps 675 mmHg 50%
    20:00 +20°C° 0.2 mm 4 mps 675 mmHg 55%
    21:00 +19°C° 0.2 mm 4 mps 675 mmHg 60%
    22:00 +18°C° 0 mm 4 mps 675 mmHg 61%
    23:00 +18°C° 0 mm 3 mps 674 mmHg 63%

    Mañana, 29 Mayo, Viernes

    Tiempo Temperatura Precipitaciones Viento Presión Humedad
    00:00 +18°C° 0 mm 3 mps 673 mmHg 65%
    01:00 +17°C° 0 mm 2 mps 673 mmHg 65%
    02:00 +17°C° 0 mm 2 mps 673 mmHg 66%
    03:00 +17°C° 0 mm 2 mps 673 mmHg 66%
    04:00 +17°C° 0.2 mm 2 mps 673 mmHg 63%
    05:00 +18°C° 0.2 mm 3 mps 673 mmHg 60%
    06:00 +18°C° 0.2 mm 4 mps 673 mmHg 57%
    07:00 +20°C° 0 mm 4 mps 673 mmHg 53%
    08:00 +21°C° 0 mm 5 mps 674 mmHg 50%
    09:00 +22°C° 0 mm 6 mps 674 mmHg 46%
    10:00 +23°C° 0.1 mm 6 mps 674 mmHg 45%
    11:00 +24°C° 0.1 mm 6 mps 674 mmHg 43%
    12:00 +26°C° 0.1 mm 7 mps 674 mmHg 42%
    13:00 +24°C° 0.3 mm 7 mps 673 mmHg 42%
    14:00 +24°C° 0.3 mm 7 mps 673 mmHg 42%
    15:00 +24°C° 0.3 mm 7 mps 672 mmHg 42%
    16:00 +23°C° 0.3 mm 6 mps 672 mmHg 48%
    17:00 +21°C° 0.3 mm 5 mps 671 mmHg 55%
    18:00 +20°C° 0.3 mm 4 mps 671 mmHg 61%
    19:00 +19°C° 0.5 mm 3 mps 671 mmHg 63%
    20:00 +19°C° 0.5 mm 3 mps 671 mmHg 64%
    21:00 +18°C° 0.5 mm 2 mps 671 mmHg 65%
    22:00 +18°C° 0 mm 2 mps 671 mmHg 68%
    23:00 +18°C° 0 mm 1 mps 670 mmHg 70%

    Pasado mañana, 30 Mayo, Sábado

    Tiempo Temperatura Precipitaciones Viento Presión Humedad
    00:00 +18°C° 0 mm 1 mps 670 mmHg 73%
    01:00 +16°C° 0.1 mm 1 mps 670 mmHg 74%
    02:00 +16°C° 0.1 mm 1 mps 669 mmHg 76%
    03:00 +15°C° 0.1 mm 1 mps 669 mmHg 77%
    04:00 +16°C° 0.1 mm 1 mps 670 mmHg 75%
    05:00 +16°C° 0.1 mm 1 mps 670 mmHg 73%
    06:00 +18°C° 0.1 mm 1 mps 670 mmHg 71%
    07:00 +19°C° 0 mm 1 mps 671 mmHg 66%
    08:00 +20°C° 0 mm 1 mps 671 mmHg 62%
    09:00 +20°C° 0 mm 2 mps 671 mmHg 57%
    10:00 +21°C° 0.1 mm 2 mps 671 mmHg 52%
    11:00 +22°C° 0.1 mm 3 mps 672 mmHg 46%
    12:00 +23°C° 0.1 mm 4 mps 672 mmHg 40%
    13:00 +23°C° 0 mm 4 mps 672 mmHg 38%
    14:00 +23°C° 0 mm 4 mps 672 mmHg 35%
    15:00 +23°C° 0 mm 5 mps 672 mmHg 32%
    16:00 +22°C° 0 mm 4 mps 671 mmHg 35%
    17:00 +21°C° 0 mm 4 mps 671 mmHg 39%
    18:00 +20°C° 0 mm 4 mps 671 mmHg 42%
    19:00 +18°C° 0 mm 3 mps 671 mmHg 50%
    20:00 +17°C° 0 mm 2 mps 671 mmHg 59%
    21:00 +16°C° 0 mm 1 mps 671 mmHg 67%
    22:00 +15°C° 0 mm 1 mps 671 mmHg 69%
    23:00 +14°C° 0 mm 1 mps 671 mmHg 71%

    31 Mayo, Domingo

    Tiempo Temperatura Precipitaciones Viento Presión Humedad
    00:00 +14°C° 0 mm 1 mps 671 mmHg 74%
    01:00 +13°C° 0 mm 1 mps 670 mmHg 74%
    02:00 +13°C° 0 mm 1 mps 670 mmHg 75%
    03:00 +11°C° 0 mm 0 mps 670 mmHg 75%
    04:00 +12°C° 0 mm 0 mps 670 mmHg 69%
    05:00 +14°C° 0 mm 0 mps 671 mmHg 63%
    06:00 +15°C° 0 mm 0 mps 671 mmHg 57%
    07:00 +16°C° 0 mm 0 mps 672 mmHg 47%
    08:00 +18°C° 0 mm 0 mps 673 mmHg 36%
    09:00 +20°C° 0 mm 0 mps 673 mmHg 26%
    10:00 +23°C° 0 mm 1 mps 674 mmHg 24%
    11:00 +25°C° 0 mm 2 mps 674 mmHg 21%
    12:00 +26°C° 0 mm 2 mps 674 mmHg 19%
    13:00 +27°C° 0 mm 3 mps 674 mmHg 20%
    14:00 +27°C° 0 mm 3 mps 674 mmHg 20%
    15:00 +27°C° 0 mm 3 mps 674 mmHg 21%
    16:00 +26°C° 0 mm 3 mps 673 mmHg 26%
    17:00 +25°C° 0 mm 3 mps 673 mmHg 31%
    18:00 +24°C° 0 mm 3 mps 672 mmHg 37%
    19:00 +22°C° 0 mm 3 mps 672 mmHg 42%
    20:00 +20°C° 0 mm 2 mps 672 mmHg 47%
    21:00 +19°C° 0 mm 2 mps 672 mmHg 52%
    22:00 +18°C° 0 mm 2 mps 672 mmHg 53%
    23:00 +19°C° 0 mm 1 mps 672 mmHg 54%

    1 Junio, Lunes

    Tiempo Temperatura Precipitaciones Viento Presión Humedad
    00:00 +19°C° 0 mm 1 mps 671 mmHg 55%
    01:00 +19°C° 0 mm 1 mps 671 mmHg 56%
    02:00 +18°C° 0 mm 1 mps 671 mmHg 57%
    03:00 +18°C° 0 mm 1 mps 671 mmHg 58%
    04:00 +19°C° 0 mm 1 mps 671 mmHg 56%
    05:00 +20°C° 0 mm 1 mps 672 mmHg 54%
    06:00 +21°C° 0 mm 1 mps 672 mmHg 53%
    07:00 +23°C° 0 mm 2 mps 672 mmHg 49%
    08:00 +24°C° 0 mm 3 mps 673 mmHg 45%
    09:00 +26°C° 0 mm 4 mps 673 mmHg 41%
    10:00 +27°C° 0 mm 4 mps 673 mmHg 37%
    11:00 +28°C° 0 mm 5 mps 673 mmHg 32%
    12:00 +29°C° 0 mm 5 mps 673 mmHg 28%
    13:00 +29°C° 0 mm 5 mps 673 mmHg 26%
    14:00 +29°C° 0 mm 5 mps 673 mmHg 24%
    15:00 +29°C° 0 mm 5 mps 673 mmHg 22%
    16:00 +28°C° 0 mm 5 mps 672 mmHg 24%
    17:00 +27°C° 0 mm 4 mps 672 mmHg 27%
    18:00 +26°C° 0 mm 4 mps 672 mmHg 29%
    19:00 +24°C° 0 mm 3 mps 672 mmHg 32%
    20:00 +23°C° 0 mm 2 mps 672 mmHg 35%
    21:00 +21°C° 0 mm 2 mps 672 mmHg 38%
    22:00 +22°C° 0 mm 1 mps 671 mmHg 39%
    23:00 +21°C° 0 mm 1 mps 671 mmHg 40%

    2 Junio, Martes

    Tiempo Temperatura Precipitaciones Viento Presión Humedad
    00:00 +20°C° 0 mm 1 mps 670 mmHg 41%
    01:00 +20°C° 0 mm 1 mps 670 mmHg 42%
    02:00 +20°C° 0 mm 1 mps 669 mmHg 44%
    03:00 +19°C° 0 mm 1 mps 669 mmHg 45%
    04:00 +21°C° 0 mm 1 mps 670 mmHg 42%
    05:00 +22°C° 0 mm 1 mps 670 mmHg 40%
    06:00 +23°C° 0 mm 1 mps 671 mmHg 38%
    07:00 +25°C° 0 mm 2 mps 671 mmHg 35%
    08:00 +26°C° 0 mm 2 mps 672 mmHg 32%
    09:00 +28°C° 0 mm 3 mps 672 mmHg 29%
    10:00 +29°C° 0 mm 4 mps 672 mmHg 26%
    11:00 +30°C° 0 mm 4 mps 672 mmHg 23%
    12:00 +32°C° 0 mm 5 mps 673 mmHg 20%
    13:00 +32°C° 0 mm 5 mps 672 mmHg 20%
    14:00 +32°C° 0 mm 5 mps 672 mmHg 20%
    15:00 +32°C° 0 mm 5 mps 671 mmHg 19%
    16:00 +30°C° 0 mm 4 mps 671 mmHg 24%
    17:00 +29°C° 0 mm 4 mps 671 mmHg 29%
    18:00 +27°C° 0 mm 3 mps 670 mmHg 34%
    19:00 +26°C° 0 mm 2 mps 670 mmHg 39%
    20:00 +24°C° 0 mm 2 mps 670 mmHg 44%
    21:00 +23°C° 0 mm 1 mps 670 mmHg 49%
    22:00 +22°C° 0 mm 1 mps 670 mmHg 51%
    23:00 +22°C° 0 mm 1 mps 669 mmHg 53%
    Mostrar más